VOZ34 YSSY-YPPH

Flight info

Callsign VOZ34
Flight time 4h 3m
Altitude 38000
Route KADOM H44 BORLI Q32 NODEV Q10 MALUP Q158 KABLI
Aircraft B77W/H-SDE1E2E3FGHIJ2J3J4J5M1RWXY/LB1D1

Departure

Time 2026-05-04 20:00
Airport Sydney Kingsford Smith International Airport (YSSY)

Arrival

Time 2026-05-05 00:03
Airport Perth International Airport (YPPH)
Time Latitude Longitude Altitude Speed Heading
2026-05-04 19:37 -33.93730 151.16950 33 ft 0 kts 254°
2026-05-04 19:47 -33.93729 151.16952 33 ft 2 kts 255°
2026-05-04 19:48 -33.93723 151.16985 32 ft 4 kts 263°
2026-05-04 19:48 -33.93724 151.17017 31 ft 3 kts 287°
2026-05-04 19:48 -33.93735 151.17035 30 ft 2 kts 326°
2026-05-04 19:48 -33.93756 151.17044 30 ft 4 kts 347°
2026-05-04 19:49 -33.93784 151.17052 29 ft 4 kts 347°
2026-05-04 19:49 -33.93805 151.17058 29 ft 0 kts 345°
2026-05-04 19:53 -33.93804 151.17058 29 ft 1 kts 345°
2026-05-04 19:53 -33.93766 151.17046 30 ft 9 kts 347°
2026-05-04 19:53 -33.93715 151.17075 28 ft 9 kts 63°
2026-05-04 19:54 -33.93729 151.17156 25 ft 10 kts 145°
2026-05-04 19:54 -33.93803 151.17181 24 ft 12 kts 168°
2026-05-04 19:54 -33.93919 151.17210 25 ft 19 kts 168°
2026-05-04 19:54 -33.94057 151.17247 26 ft 21 kts 168°
2026-05-04 19:55 -33.94215 151.17288 27 ft 24 kts 168°
2026-05-04 19:55 -33.94385 151.17329 28 ft 26 kts 169°
2026-05-04 19:55 -33.94539 151.17371 28 ft 19 kts 168°
2026-05-04 19:55 -33.94678 151.17409 27 ft 21 kts 166°
2026-05-04 19:56 -33.94836 151.17450 25 ft 24 kts 168°
2026-05-04 19:56 -33.95017 151.17493 24 ft 27 kts 168°
2026-05-04 19:56 -33.95204 151.17545 22 ft 28 kts 168°
2026-05-04 19:56 -33.95408 151.17596 21 ft 29 kts 168°
2026-05-04 19:57 -33.95596 151.17645 21 ft 27 kts 168°
2026-05-04 19:57 -33.95788 151.17696 22 ft 29 kts 168°
2026-05-04 19:57 -33.95988 151.17747 22 ft 29 kts 168°
2026-05-04 19:57 -33.96181 151.17798 22 ft 26 kts 168°
2026-05-04 19:58 -33.96325 151.17835 21 ft 15 kts 168°
2026-05-04 19:58 -33.96412 151.17865 20 ft 11 kts 144°
2026-05-04 19:58 -33.96437 151.17938 21 ft 8 kts 85°
2026-05-04 19:58 -33.96426 151.18002 21 ft 7 kts 77°
2026-05-04 19:59 -33.96401 151.18048 22 ft 6 kts 16°
2026-05-04 19:59 -33.96365 151.18047 22 ft 0 kts 350°
2026-05-04 19:59 -33.96357 151.18045 22 ft 8 kts 350°
2026-05-04 19:59 -33.96126 151.17986 22 ft 70 kts 347°
2026-05-04 20:00 -33.95398 151.17796 23 ft 143 kts 347°
2026-05-04 20:00 -33.94281 151.17529 325 ft 176 kts 346°
2026-05-04 20:00 -33.93048 151.17267 1168 ft 184 kts 347°
2026-05-04 20:00 -33.91869 151.16830 2034 ft 181 kts 327°
2026-05-04 20:01 -33.90871 151.15868 2473 ft 194 kts 306°
2026-05-04 20:01 -33.90059 151.14540 3137 ft 202 kts 302°
2026-05-04 20:01 -33.89265 151.13092 3759 ft 214 kts 300°
2026-05-04 20:01 -33.88436 151.11533 4365 ft 229 kts 302°
2026-05-04 20:02 -33.87553 151.09892 4988 ft 244 kts 303°
2026-05-04 20:02 -33.86625 151.08168 5821 ft 250 kts 303°
2026-05-04 20:02 -33.85679 151.06412 6759 ft 251 kts 304°
2026-05-04 20:02 -33.84743 151.04678 7660 ft 252 kts 303°
2026-05-04 20:03 -33.83796 151.02922 8567 ft 253 kts 303°
2026-05-04 20:03 -33.82994 151.01060 9419 ft 257 kts 288°
2026-05-04 20:03 -33.82600 150.98958 10291 ft 259 kts 284°
2026-05-04 20:03 -33.82239 150.96805 10841 ft 273 kts 284°
2026-05-04 20:04 -33.81857 150.94511 11346 ft 289 kts 283°
2026-05-04 20:04 -33.81451 150.92070 11898 ft 305 kts 283°
2026-05-04 20:04 -33.81025 150.89510 12450 ft 320 kts 283°
2026-05-04 20:04 -33.80580 150.86839 13020 ft 334 kts 283°
2026-05-04 20:05 -33.80116 150.84045 13642 ft 348 kts 283°
2026-05-04 20:05 -33.79636 150.81163 14274 ft 361 kts 283°
2026-05-04 20:05 -33.79143 150.78195 15178 ft 367 kts 283°
2026-05-04 20:05 -33.78646 150.75209 16180 ft 370 kts 283°
2026-05-04 20:06 -33.78140 150.72166 17091 ft 374 kts 283°
2026-05-04 20:06 -33.77628 150.69095 17957 ft 379 kts 283°
2026-05-04 20:06 -33.77109 150.65977 18826 ft 384 kts 283°
2026-05-04 20:06 -33.76585 150.62840 19666 ft 388 kts 283°
2026-05-04 20:07 -33.76054 150.59657 20526 ft 392 kts 283°
2026-05-04 20:07 -33.75519 150.56459 21354 ft 396 kts 283°
2026-05-04 20:07 -33.74979 150.53236 22107 ft 401 kts 284°
2026-05-04 20:07 -33.74423 150.49916 22870 ft 405 kts 283°
2026-05-04 20:08 -33.73871 150.46617 23584 ft 410 kts 283°
2026-05-04 20:08 -33.73303 150.43236 24327 ft 414 kts 283°
2026-05-04 20:08 -33.72737 150.39861 25085 ft 417 kts 283°
2026-05-04 20:08 -33.72166 150.36458 25797 ft 420 kts 283°
2026-05-04 20:09 -33.71595 150.33029 26466 ft 425 kts 283°
2026-05-04 20:09 -33.71283 150.29478 27189 ft 431 kts 275°
2026-05-04 20:09 -33.71409 150.25896 27891 ft 437 kts 269°
2026-05-04 20:09 -33.71736 150.22111 28546 ft 442 kts 268°
2026-05-04 20:10 -33.72078 150.18274 29207 ft 446 kts 268°
2026-05-04 20:10 -33.72420 150.14414 29898 ft 449 kts 268°
2026-05-04 20:10 -33.72787 150.10242 30882 ft 444 kts 268°
2026-05-04 20:10 -33.73147 150.06145 32044 ft 434 kts 268°
2026-05-04 20:11 -33.73459 150.02565 32907 ft 428 kts 269°
2026-05-04 20:11 -33.73761 149.99054 33580 ft 426 kts 269°
2026-05-04 20:11 -33.74063 149.95538 34128 ft 424 kts 269°
2026-05-04 20:11 -33.74364 149.92007 34593 ft 424 kts 269°
2026-05-04 20:12 -33.74677 149.88321 35023 ft 425 kts 269°
2026-05-04 20:12 -33.75035 149.84096 35542 ft 425 kts 269°
2026-05-04 20:12 -33.75345 149.80421 36086 ft 424 kts 269°
2026-05-04 20:12 -33.75673 149.76523 36663 ft 423 kts 269°
2026-05-04 20:13 -33.76007 149.72536 37245 ft 421 kts 269°
2026-05-04 20:13 -33.76300 149.69016 37667 ft 420 kts 269°
2026-05-04 20:13 -33.76592 149.65508 38011 ft 421 kts 269°
2026-05-04 20:13 -33.76888 149.61928 38118 ft 424 kts 269°
2026-05-04 20:14 -33.77232 149.57753 38157 ft 424 kts 269°
2026-05-04 20:14 -33.77832 149.50446 38127 ft 421 kts 269°
2026-05-04 20:15 -33.78401 149.43448 38138 ft 423 kts 269°
2026-05-04 20:15 -33.79018 149.35815 38140 ft 424 kts 269°
2026-05-04 20:16 -33.79677 149.27593 38129 ft 423 kts 269°
2026-05-04 20:16 -33.80287 149.19914 38144 ft 424 kts 269°
2026-05-04 20:17 -33.80941 149.11612 38142 ft 424 kts 269°
2026-05-04 20:17 -33.81547 149.03853 38129 ft 424 kts 269°
2026-05-04 20:18 -33.82094 148.96800 38127 ft 425 kts 269°
2026-05-04 20:18 -33.82637 148.89737 38136 ft 425 kts 269°
2026-05-04 20:19 -33.83177 148.82675 38134 ft 427 kts 269°
2026-05-04 20:19 -33.83714 148.75594 38139 ft 426 kts 269°
2026-05-04 20:20 -33.84245 148.68523 38143 ft 428 kts 269°
2026-05-04 20:20 -33.85182 148.61023 38148 ft 432 kts 263°
2026-05-04 20:21 -33.86579 148.52725 38143 ft 431 kts 263°
2026-05-04 20:21 -33.88652 148.40273 38136 ft 432 kts 263°
2026-05-04 20:22 -33.90044 148.31848 38158 ft 434 kts 264°
2026-05-04 20:22 -33.91378 148.23732 38153 ft 434 kts 263°
2026-05-04 20:23 -33.92572 148.16440 38145 ft 434 kts 264°
2026-05-04 20:23 -33.93965 148.07890 38162 ft 435 kts 264°
2026-05-04 20:24 -33.95334 147.99452 38156 ft 435 kts 264°
2026-05-04 20:24 -33.96691 147.91052 38153 ft 434 kts 263°
2026-05-04 20:25 -33.98041 147.82651 38160 ft 435 kts 263°
2026-05-04 20:25 -33.99372 147.74333 38155 ft 436 kts 263°
2026-05-04 20:26 -34.00709 147.65941 38151 ft 434 kts 263°
2026-05-04 20:26 -34.02048 147.57494 38144 ft 435 kts 263°
2026-05-04 20:27 -34.03362 147.49175 38148 ft 433 kts 263°
2026-05-04 20:27 -34.04676 147.40808 38141 ft 435 kts 263°
2026-05-04 20:28 -34.05999 147.32347 38151 ft 435 kts 264°
2026-05-04 20:28 -34.07301 147.23979 38138 ft 434 kts 264°
2026-05-04 20:29 -34.08510 147.16176 38140 ft 436 kts 263°
2026-05-04 20:29 -34.09811 147.07744 38139 ft 436 kts 264°
2026-05-04 20:30 -34.11118 146.99228 38139 ft 435 kts 264°
2026-05-04 20:30 -34.12414 146.90745 38146 ft 434 kts 263°
2026-05-04 20:31 -34.13696 146.82307 38144 ft 436 kts 263°
2026-05-04 20:31 -34.14902 146.74344 38143 ft 437 kts 264°
2026-05-04 20:32 -34.16060 146.66656 38141 ft 437 kts 263°
2026-05-04 20:32 -34.17227 146.58876 38141 ft 436 kts 263°
2026-05-04 20:33 -34.18505 146.50314 38138 ft 437 kts 263°
2026-05-04 20:33 -34.19639 146.42685 38136 ft 437 kts 263°
2026-05-04 20:34 -34.20902 146.34143 38139 ft 439 kts 264°
2026-05-04 20:34 -34.22163 146.25569 38147 ft 437 kts 263°
2026-05-04 20:35 -34.23386 146.17218 38148 ft 439 kts 264°
2026-05-04 20:35 -34.24486 146.09674 38144 ft 437 kts 263°
2026-05-04 20:36 -34.25066 146.02063 38155 ft 437 kts 270°
2026-05-04 20:36 -34.25355 145.93474 38162 ft 436 kts 270°
2026-05-04 20:37 -34.25631 145.84898 38157 ft 437 kts 270°
2026-05-04 20:37 -34.25903 145.76164 38154 ft 436 kts 270°
2026-05-04 20:38 -34.26162 145.67580 38155 ft 438 kts 271°
2026-05-04 20:38 -34.26425 145.58659 38155 ft 436 kts 270°
2026-05-04 20:39 -34.26671 145.50085 38164 ft 437 kts 270°
2026-05-04 20:39 -34.26912 145.41483 38155 ft 437 kts 270°
2026-05-04 20:40 -34.27147 145.32861 38163 ft 437 kts 271°
2026-05-04 20:40 -34.27356 145.25023 38163 ft 438 kts 271°
2026-05-04 20:41 -34.27569 145.16806 38156 ft 437 kts 271°
2026-05-04 20:41 -34.27785 145.08272 38161 ft 439 kts 270°
2026-05-04 20:42 -34.27990 144.99921 38151 ft 440 kts 271°
2026-05-04 20:42 -34.28196 144.91330 38153 ft 439 kts 270°
2026-05-04 20:43 -34.28397 144.82692 38163 ft 438 kts 270°
2026-05-04 20:43 -34.28591 144.74052 38167 ft 439 kts 270°
2026-05-04 20:44 -34.28767 144.65965 38165 ft 441 kts 270°
2026-05-04 20:44 -34.28947 144.57480 38165 ft 440 kts 270°
2026-05-04 20:45 -34.29124 144.48807 38163 ft 442 kts 270°
2026-05-04 20:45 -34.29298 144.40007 38161 ft 442 kts 270°
2026-05-04 20:46 -34.29458 144.31596 38173 ft 440 kts 271°
2026-05-04 20:46 -34.29615 144.23021 38176 ft 441 kts 271°
2026-05-04 20:47 -34.29761 144.14804 38169 ft 440 kts 271°
2026-05-04 20:47 -34.29908 144.06102 38165 ft 443 kts 271°
2026-05-04 20:48 -34.30051 143.97313 38166 ft 443 kts 271°
2026-05-04 20:48 -34.30187 143.88609 38169 ft 442 kts 271°
2026-05-04 20:49 -34.30316 143.79921 38176 ft 443 kts 271°
2026-05-04 20:49 -34.30439 143.71220 38186 ft 444 kts 271°
2026-05-04 20:50 -34.30557 143.62500 38177 ft 443 kts 270°
2026-05-04 20:50 -34.30664 143.54083 38181 ft 444 kts 270°
2026-05-04 20:51 -34.30753 143.46657 38176 ft 444 kts 270°
2026-05-04 20:51 -34.30839 143.39201 38175 ft 445 kts 270°
2026-05-04 20:52 -34.30920 143.31763 38194 ft 444 kts 271°
2026-05-04 20:52 -34.30997 143.24342 38181 ft 444 kts 271°
2026-05-04 20:53 -34.31069 143.16867 38184 ft 446 kts 271°
2026-05-04 20:53 -34.31137 143.09381 38180 ft 445 kts 271°
2026-05-04 20:54 -34.31200 143.01900 38180 ft 446 kts 271°
2026-05-04 20:54 -34.31259 142.94414 38161 ft 446 kts 271°
2026-05-04 20:55 -34.31313 142.86942 38175 ft 446 kts 271°
2026-05-04 20:55 -34.31363 142.79475 38175 ft 445 kts 270°
2026-05-04 20:56 -34.31408 142.72006 38174 ft 446 kts 271°
2026-05-04 20:56 -34.31448 142.64520 38167 ft 446 kts 270°
2026-05-04 20:57 -34.31484 142.57027 38177 ft 446 kts 270°
2026-05-04 20:57 -34.31516 142.49521 38174 ft 446 kts 270°
2026-05-04 20:58 -34.31543 142.42075 38186 ft 447 kts 270°
2026-05-04 20:58 -34.31565 142.34540 38174 ft 446 kts 271°
2026-05-04 20:59 -34.31583 142.27089 38193 ft 445 kts 271°
2026-05-04 20:59 -34.31596 142.19614 38182 ft 446 kts 271°
2026-05-04 21:00 -34.31606 142.11089 38195 ft 446 kts 271°
2026-05-04 21:00 -34.31609 142.02328 38198 ft 446 kts 271°
2026-05-04 21:01 -34.31607 141.93620 38192 ft 446 kts 270°
2026-05-04 21:01 -34.31598 141.84821 38186 ft 447 kts 271°
2026-05-04 21:02 -34.31584 141.76572 38210 ft 447 kts 270°
2026-05-04 21:02 -34.31564 141.67992 38198 ft 446 kts 270°
2026-05-04 21:03 -34.31537 141.59230 38194 ft 446 kts 270°
2026-05-04 21:03 -34.31503 141.50386 38209 ft 446 kts 270°
2026-05-04 21:04 -34.31467 141.42335 38198 ft 447 kts 270°
2026-05-04 21:04 -34.31424 141.33916 38208 ft 446 kts 271°
2026-05-04 21:05 -34.31375 141.25555 38215 ft 446 kts 271°
2026-05-04 21:05 -34.31322 141.17360 38210 ft 446 kts 270°
2026-05-04 21:06 -34.31259 141.08595 38220 ft 446 kts 270°
2026-05-04 21:06 -34.31190 140.99904 38204 ft 447 kts 271°
2026-05-04 21:07 -34.31121 140.91904 38207 ft 449 kts 271°
2026-05-04 21:07 -34.31042 140.83299 38200 ft 448 kts 271°
2026-05-04 21:08 -34.30953 140.74417 38201 ft 450 kts 270°
2026-05-04 21:08 -34.30859 140.65610 38191 ft 449 kts 270°
2026-05-04 21:09 -34.30757 140.56718 38186 ft 448 kts 270°
2026-05-04 21:09 -34.30667 140.49208 38193 ft 449 kts 270°
2026-05-04 21:10 -34.30565 140.41188 38191 ft 449 kts 270°
2026-05-04 21:10 -34.30446 140.32327 38208 ft 450 kts 271°
2026-05-04 21:11 -34.30323 140.23569 38218 ft 450 kts 271°
2026-05-04 21:11 -34.30191 140.14711 38222 ft 450 kts 271°
2026-05-04 21:12 -34.30053 140.05777 38221 ft 451 kts 271°
2026-05-04 21:12 -34.29908 139.96890 38208 ft 451 kts 271°
2026-05-04 21:13 -34.29761 139.88246 38218 ft 450 kts 271°
2026-05-04 21:13 -34.29607 139.79533 38213 ft 452 kts 270°
2026-05-04 21:14 -34.29446 139.70789 38217 ft 452 kts 270°
2026-05-04 21:14 -34.29277 139.61961 38216 ft 451 kts 270°
2026-05-04 21:15 -34.29103 139.53171 38216 ft 452 kts 270°
2026-05-04 21:15 -34.28924 139.44432 38215 ft 452 kts 270°
2026-05-04 21:16 -34.28735 139.35582 38215 ft 453 kts 270°
2026-05-04 21:16 -34.28539 139.26668 38216 ft 454 kts 271°
2026-05-04 21:17 -34.28342 139.17946 38222 ft 453 kts 271°
2026-05-04 21:17 -34.28134 139.09088 38225 ft 453 kts 271°
2026-05-04 21:18 -34.27922 139.00313 38219 ft 453 kts 271°
2026-05-04 21:18 -34.27704 138.91518 38223 ft 453 kts 271°
2026-05-04 21:19 -34.27477 138.82657 38216 ft 454 kts 271°
2026-05-04 21:19 -34.27277 138.75035 38215 ft 454 kts 271°
2026-05-04 21:20 -34.27072 138.67380 38220 ft 454 kts 271°
2026-05-04 21:20 -34.26863 138.59787 38216 ft 453 kts 271°
2026-05-04 21:21 -34.26651 138.52220 38221 ft 454 kts 271°
2026-05-04 21:21 -34.26429 138.44514 38221 ft 454 kts 271°
2026-05-04 21:22 -34.26207 138.36929 38216 ft 455 kts 271°
2026-05-04 21:22 -34.25979 138.29334 38225 ft 455 kts 271°
2026-05-04 21:23 -34.25745 138.21683 38224 ft 454 kts 271°
2026-05-04 21:23 -34.25504 138.13954 38223 ft 455 kts 271°
2026-05-04 21:24 -34.25261 138.06313 38227 ft 455 kts 271°
2026-05-04 21:24 -34.25010 137.98563 38224 ft 455 kts 271°
2026-05-04 21:25 -34.24715 137.89691 38218 ft 455 kts 271°
2026-05-04 21:25 -34.24415 137.80806 38214 ft 455 kts 271°
2026-05-04 21:26 -34.24107 137.71904 38214 ft 456 kts 271°
2026-05-04 21:26 -34.23822 137.63835 38218 ft 456 kts 271°
2026-05-04 21:27 -34.23528 137.55643 38214 ft 457 kts 271°
2026-05-04 21:27 -34.23199 137.46686 38220 ft 456 kts 271°
2026-05-04 21:28 -34.22879 137.38106 38222 ft 457 kts 271°
2026-05-04 21:28 -34.22588 137.30450 38229 ft 456 kts 271°
2026-05-04 21:29 -34.22288 137.22682 38219 ft 456 kts 272°
2026-05-04 21:29 -34.21936 137.13727 38220 ft 457 kts 272°
2026-05-04 21:30 -34.21603 137.05397 38219 ft 457 kts 272°
2026-05-04 21:30 -34.21289 136.97704 38227 ft 459 kts 271°
2026-05-04 21:31 -34.20806 136.86037 38229 ft 458 kts 272°
2026-05-04 21:32 -34.20454 136.77727 38232 ft 458 kts 272°
2026-05-04 21:32 -34.20108 136.69673 38235 ft 458 kts 272°
2026-05-04 21:33 -34.19776 136.62048 38241 ft 458 kts 272°
2026-05-04 21:33 -34.19403 136.53613 38234 ft 458 kts 271°
2026-05-04 21:34 -34.19032 136.45363 38231 ft 457 kts 272°
2026-05-04 21:34 -34.18625 136.36427 38238 ft 458 kts 272°
2026-05-04 21:35 -34.18268 136.28719 38243 ft 457 kts 272°
2026-05-04 21:35 -34.17909 136.21071 38241 ft 457 kts 272°
2026-05-04 21:36 -34.17496 136.12396 38239 ft 457 kts 272°
2026-05-04 21:36 -34.17124 136.04688 38235 ft 456 kts 272°
2026-05-04 21:37 -34.16694 135.95894 38232 ft 457 kts 272°
2026-05-04 21:37 -34.16299 135.87942 38242 ft 458 kts 272°
2026-05-04 21:38 -34.15881 135.79625 38250 ft 457 kts 272°
2026-05-04 21:38 -34.15437 135.70923 38257 ft 458 kts 272°
2026-05-04 21:39 -34.14999 135.62445 38256 ft 459 kts 272°
2026-05-04 21:39 -34.14543 135.53758 38258 ft 457 kts 272°
2026-05-04 21:40 -34.14071 135.44861 38254 ft 457 kts 272°
2026-05-04 21:40 -34.13584 135.35812 38256 ft 457 kts 272°
2026-05-04 21:41 -34.13139 135.26996 38258 ft 458 kts 272°
2026-05-04 21:41 -34.12742 135.19116 38257 ft 458 kts 272°
2026-05-04 21:42 -34.12336 135.11148 38260 ft 458 kts 272°
2026-05-04 21:42 -34.11932 135.03297 38259 ft 457 kts 272°
2026-05-04 21:43 -34.11523 134.95474 38260 ft 457 kts 272°
2026-05-04 21:43 -34.11120 134.87831 38261 ft 458 kts 273°
2026-05-04 21:44 -34.10710 134.80164 38257 ft 457 kts 273°
2026-05-04 21:44 -34.10292 134.72446 38260 ft 458 kts 273°
2026-05-04 21:45 -34.09873 134.64781 38257 ft 457 kts 273°
2026-05-04 21:45 -34.09450 134.57146 38260 ft 457 kts 273°
2026-05-04 21:46 -34.09021 134.49474 38254 ft 457 kts 273°
2026-05-04 21:46 -34.08590 134.41843 38254 ft 457 kts 273°
2026-05-04 21:47 -34.08149 134.34149 38257 ft 457 kts 274°
2026-05-04 21:47 -34.07707 134.26497 38264 ft 458 kts 274°
2026-05-04 21:48 -34.07262 134.18878 38255 ft 458 kts 274°
2026-05-04 21:48 -34.06811 134.11252 38262 ft 457 kts 274°
2026-05-04 21:49 -34.06354 134.03609 38261 ft 458 kts 274°
2026-05-04 21:49 -34.05894 133.95967 38257 ft 458 kts 274°
2026-05-04 21:50 -34.05425 133.88275 38265 ft 456 kts 274°
2026-05-04 21:50 -34.04956 133.80658 38264 ft 457 kts 274°
2026-05-04 21:51 -34.04481 133.73042 38253 ft 456 kts 274°
2026-05-04 21:51 -34.04004 133.65442 38253 ft 457 kts 274°
2026-05-04 21:52 -34.03517 133.57768 38249 ft 457 kts 274°
2026-05-04 21:52 -34.02975 133.49304 38254 ft 457 kts 274°
2026-05-04 21:53 -34.02449 133.41203 38257 ft 457 kts 274°
2026-05-04 21:53 -34.01931 133.33278 38252 ft 456 kts 274°
2026-05-04 21:54 -34.01357 133.24608 38262 ft 457 kts 274°
2026-05-04 21:54 -34.00769 133.15813 38271 ft 458 kts 274°
2026-05-04 21:55 -34.00169 133.06934 38262 ft 458 kts 275°
2026-05-04 21:55 -33.99599 132.98579 38260 ft 457 kts 275°
2026-05-04 21:56 -33.99072 132.90936 38263 ft 457 kts 275°
2026-05-04 21:56 -33.98546 132.83365 38264 ft 455 kts 275°
2026-05-04 21:57 -33.98011 132.75746 38267 ft 456 kts 275°
2026-05-04 21:57 -33.97475 132.68184 38265 ft 455 kts 275°
2026-05-04 21:58 -33.96932 132.60570 38264 ft 457 kts 275°
2026-05-04 21:58 -33.96387 132.53011 38273 ft 456 kts 275°
2026-05-04 21:59 -33.95835 132.45415 38271 ft 456 kts 274°
2026-05-04 21:59 -33.95278 132.37823 38271 ft 456 kts 274°
2026-05-04 22:00 -33.94718 132.30246 38275 ft 455 kts 275°
2026-05-04 22:00 -33.94157 132.22716 38280 ft 455 kts 275°
2026-05-04 22:01 -33.93589 132.15157 38281 ft 456 kts 275°
2026-05-04 22:01 -33.93013 132.07555 38281 ft 456 kts 275°
2026-05-04 22:02 -33.92434 131.99979 38277 ft 456 kts 275°
2026-05-04 22:02 -33.91850 131.92404 38279 ft 455 kts 275°
2026-05-04 22:03 -33.91262 131.84831 38283 ft 455 kts 275°
2026-05-04 22:03 -33.90670 131.77269 38278 ft 455 kts 275°
2026-05-04 22:04 -33.90076 131.69740 38279 ft 455 kts 275°
2026-05-04 22:04 -33.89473 131.62152 38280 ft 455 kts 275°
2026-05-04 22:05 -33.88864 131.54556 38280 ft 455 kts 275°
2026-05-04 22:05 -33.88252 131.46995 38277 ft 457 kts 275°
2026-05-04 22:06 -33.87629 131.39432 38286 ft 456 kts 275°
2026-05-04 22:06 -33.87004 131.31894 38291 ft 455 kts 275°
2026-05-04 22:07 -33.86372 131.24327 38297 ft 456 kts 275°
2026-05-04 22:07 -33.85733 131.16740 38299 ft 456 kts 275°
2026-05-04 22:08 -33.85092 131.09189 38301 ft 457 kts 275°
2026-05-04 22:08 -33.84446 131.01616 38305 ft 457 kts 275°
2026-05-04 22:09 -33.83793 130.94031 38295 ft 457 kts 275°
2026-05-04 22:09 -33.83140 130.86488 38302 ft 456 kts 275°
2026-05-04 22:10 -33.82479 130.78920 38299 ft 456 kts 275°
2026-05-04 22:10 -33.81817 130.71391 38300 ft 456 kts 275°
2026-05-04 22:11 -33.81150 130.63860 38293 ft 456 kts 275°
2026-05-04 22:11 -33.80473 130.56262 38284 ft 456 kts 275°
2026-05-04 22:12 -33.79796 130.48712 38289 ft 455 kts 275°
2026-05-04 22:12 -33.79115 130.41183 38287 ft 456 kts 275°
2026-05-04 22:13 -33.78429 130.33643 38293 ft 455 kts 275°
2026-05-04 22:13 -33.77740 130.26126 38297 ft 456 kts 275°
2026-05-04 22:14 -33.77043 130.18579 38299 ft 455 kts 275°
2026-05-04 22:14 -33.76343 130.11037 38297 ft 455 kts 275°
2026-05-04 22:15 -33.75640 130.03517 38293 ft 455 kts 275°
2026-05-04 22:15 -33.74931 129.95985 38285 ft 454 kts 275°
2026-05-04 22:16 -33.74221 129.88500 38285 ft 455 kts 275°
2026-05-04 22:16 -33.73501 129.80942 38289 ft 455 kts 275°
2026-05-04 22:17 -33.72782 129.73454 38294 ft 456 kts 275°
2026-05-04 22:17 -33.72051 129.65881 38295 ft 454 kts 275°
2026-05-04 22:18 -33.71322 129.58395 38296 ft 455 kts 275°
2026-05-04 22:18 -33.70583 129.50842 38299 ft 455 kts 275°
2026-05-04 22:19 -33.69844 129.43338 38302 ft 455 kts 275°
2026-05-04 22:19 -33.69102 129.35846 38302 ft 455 kts 275°
2026-05-04 22:20 -33.68350 129.28307 38307 ft 455 kts 275°
2026-05-04 22:20 -33.67594 129.20783 38309 ft 456 kts 275°
2026-05-04 22:21 -33.66837 129.13281 38309 ft 455 kts 275°
2026-05-04 22:21 -33.66077 129.05795 38307 ft 455 kts 275°
2026-05-04 22:22 -33.65308 128.98271 38299 ft 455 kts 275°
2026-05-04 22:22 -33.64537 128.90778 38301 ft 454 kts 275°
2026-05-04 22:23 -33.63758 128.83249 38285 ft 451 kts 275°
2026-05-04 22:23 -33.62976 128.75734 38123 ft 454 kts 275°
2026-05-04 22:23 -33.62590 128.72044 38310 ft 452 kts 275°
2026-05-04 22:24 -33.62127 128.67630 38472 ft 456 kts 275°
2026-05-04 22:24 -33.61666 128.63249 38299 ft 455 kts 275°
2026-05-04 22:24 -33.61252 128.59332 38299 ft 452 kts 275°
2026-05-04 22:25 -33.60355 128.50880 38303 ft 454 kts 275°
2026-05-04 22:25 -33.59423 128.42160 38286 ft 453 kts 275°
2026-05-04 22:26 -33.58482 128.33414 38302 ft 454 kts 276°
2026-05-04 22:26 -33.57533 128.24646 38467 ft 454 kts 276°
2026-05-04 22:26 -33.57059 128.20283 38304 ft 452 kts 276°
2026-05-04 22:27 -33.56608 128.16157 38304 ft 452 kts 276°
2026-05-04 22:27 -33.55789 128.08691 38120 ft 452 kts 276°
2026-05-04 22:27 -33.55382 128.04994 38317 ft 453 kts 276°
2026-05-04 22:28 -33.54964 128.01209 38302 ft 455 kts 276°
2026-05-04 22:28 -33.54553 127.97490 38420 ft 454 kts 276°
2026-05-04 22:28 -33.54146 127.93788 38305 ft 451 kts 276°
2026-05-04 22:29 -33.53324 127.86344 38303 ft 453 kts 276°
2026-05-04 22:29 -33.52492 127.78860 38305 ft 453 kts 276°
2026-05-04 22:30 -33.51663 127.71439 38308 ft 452 kts 276°
2026-05-04 22:30 -33.50826 127.63992 38312 ft 451 kts 276°
2026-05-04 22:31 -33.49989 127.56580 38316 ft 451 kts 276°
2026-05-04 22:31 -33.49146 127.49160 38317 ft 451 kts 276°
2026-05-04 22:32 -33.48299 127.41750 38317 ft 452 kts 276°
2026-05-04 22:32 -33.47448 127.34339 38318 ft 451 kts 276°
2026-05-04 22:33 -33.46494 127.26082 38322 ft 451 kts 276°
2026-05-04 22:33 -33.45613 127.18501 38321 ft 452 kts 276°
2026-05-04 22:34 -33.44665 127.10389 38324 ft 451 kts 276°
2026-05-04 22:34 -33.43754 127.02630 38328 ft 450 kts 276°
2026-05-04 22:35 -33.42868 126.95134 38325 ft 450 kts 276°
2026-05-04 22:35 -33.41956 126.87449 38329 ft 450 kts 276°
2026-05-04 22:36 -33.41002 126.79462 38327 ft 450 kts 276°
2026-05-04 22:36 -33.40107 126.72013 38329 ft 449 kts 276°
2026-05-04 22:37 -33.39219 126.64651 38333 ft 451 kts 276°
2026-05-04 22:37 -33.38318 126.57219 38333 ft 450 kts 276°
2026-05-04 22:38 -33.37398 126.49678 38330 ft 451 kts 276°
2026-05-04 22:38 -33.36468 126.42090 38327 ft 449 kts 276°
2026-05-04 22:39 -33.35565 126.34759 38331 ft 450 kts 277°
2026-05-04 22:39 -33.34647 126.27339 38338 ft 450 kts 277°
2026-05-04 22:40 -33.33732 126.19990 38340 ft 450 kts 277°
2026-05-04 22:40 -33.32810 126.12616 38343 ft 449 kts 277°
2026-05-04 22:41 -33.31885 126.05256 38341 ft 449 kts 277°
2026-05-04 22:41 -33.30962 125.97940 38342 ft 449 kts 277°
2026-05-04 22:42 -33.30024 125.90551 38337 ft 448 kts 277°
2026-05-04 22:42 -33.29093 125.83246 38330 ft 448 kts 277°
2026-05-04 22:43 -33.28148 125.75864 38327 ft 449 kts 277°
2026-05-04 22:43 -33.27203 125.68524 38328 ft 449 kts 277°
2026-05-04 22:44 -33.26253 125.61187 38330 ft 448 kts 277°
2026-05-04 22:44 -33.25300 125.53851 38333 ft 448 kts 277°
2026-05-04 22:45 -33.24345 125.46536 38329 ft 448 kts 277°
2026-05-04 22:45 -33.22899 125.35524 38323 ft 448 kts 277°
2026-05-04 22:46 -33.21928 125.28178 38329 ft 449 kts 277°
2026-05-04 22:46 -33.20956 125.20856 38329 ft 449 kts 277°
2026-05-04 22:47 -33.19979 125.13524 38335 ft 449 kts 277°
2026-05-04 22:47 -33.18993 125.06165 38344 ft 449 kts 277°
2026-05-04 22:48 -33.18007 124.98840 38345 ft 449 kts 277°
2026-05-04 22:48 -33.17012 124.91528 38346 ft 448 kts 277°
2026-05-04 22:49 -33.16013 124.84225 38346 ft 448 kts 277°
2026-05-04 22:49 -33.15007 124.76906 38343 ft 449 kts 277°
2026-05-04 22:50 -33.14000 124.69602 38343 ft 447 kts 277°
2026-05-04 22:50 -33.12983 124.62264 38343 ft 448 kts 277°
2026-05-04 22:51 -33.11970 124.54986 38342 ft 449 kts 277°
2026-05-04 22:51 -33.10947 124.47668 38341 ft 448 kts 277°
2026-05-04 22:52 -33.09919 124.40346 38340 ft 448 kts 277°
2026-05-04 22:52 -33.08892 124.33068 38346 ft 447 kts 278°
2026-05-04 22:53 -33.07864 124.25807 38346 ft 446 kts 278°
2026-05-04 22:53 -33.06829 124.18531 38347 ft 447 kts 278°
2026-05-04 22:54 -33.05787 124.11242 38348 ft 446 kts 278°
2026-05-04 22:54 -33.04744 124.03969 38347 ft 446 kts 278°
2026-05-04 22:55 -33.03696 123.96701 38357 ft 447 kts 278°
2026-05-04 22:55 -33.02642 123.89414 38364 ft 447 kts 278°
2026-05-04 22:56 -33.01584 123.82131 38364 ft 447 kts 278°
2026-05-04 22:56 -33.00524 123.74868 38362 ft 447 kts 278°
2026-05-04 22:57 -32.99464 123.67636 38359 ft 447 kts 278°
2026-05-04 22:57 -32.98386 123.60313 38361 ft 446 kts 278°
2026-05-04 22:58 -32.97287 123.52877 38359 ft 446 kts 278°
2026-05-04 22:58 -32.96213 123.45640 38362 ft 445 kts 278°
2026-05-04 22:59 -32.95131 123.38384 38360 ft 447 kts 278°
2026-05-04 22:59 -32.94048 123.31144 38384 ft 447 kts 278°
2026-05-04 23:00 -32.92956 123.23875 38373 ft 447 kts 278°
2026-05-04 23:00 -32.91828 123.16400 38377 ft 448 kts 278°
2026-05-04 23:01 -32.90727 123.09135 38378 ft 447 kts 278°
2026-05-04 23:01 -32.89621 123.01865 38379 ft 447 kts 278°
2026-05-04 23:02 -32.88510 122.94589 38380 ft 447 kts 278°
2026-05-04 23:02 -32.87396 122.87324 38378 ft 447 kts 278°
2026-05-04 23:03 -32.86282 122.80090 38373 ft 447 kts 279°
2026-05-04 23:03 -32.85160 122.72833 38371 ft 447 kts 279°
2026-05-04 23:04 -32.84037 122.65597 38367 ft 447 kts 278°
2026-05-04 23:04 -32.82908 122.58351 38377 ft 448 kts 278°
2026-05-04 23:05 -32.81779 122.51134 38379 ft 448 kts 278°
2026-05-04 23:05 -32.80631 122.43825 38377 ft 448 kts 278°
2026-05-04 23:06 -32.79489 122.36584 38373 ft 448 kts 278°
2026-05-04 23:06 -32.78336 122.29299 38374 ft 449 kts 279°
2026-05-04 23:07 -32.77191 122.22094 38383 ft 448 kts 279°
2026-05-04 23:07 -32.75870 122.13814 38382 ft 448 kts 279°
2026-05-04 23:08 -32.74501 122.05273 38393 ft 448 kts 279°
2026-05-04 23:08 -32.73180 121.97070 38391 ft 448 kts 279°
2026-05-04 23:09 -32.71821 121.88663 38392 ft 449 kts 279°
2026-05-04 23:09 -32.70733 121.80066 38389 ft 448 kts 275°
2026-05-04 23:10 -32.69886 121.71433 38396 ft 448 kts 275°
2026-05-04 23:10 -32.69017 121.62884 38391 ft 448 kts 275°
2026-05-04 23:11 -32.68130 121.54323 38395 ft 447 kts 275°
2026-05-04 23:11 -32.67228 121.45727 38391 ft 448 kts 275°
2026-05-04 23:12 -32.66345 121.37389 38389 ft 447 kts 275°
2026-05-04 23:12 -32.65412 121.28653 38392 ft 448 kts 276°
2026-05-04 23:13 -32.64491 121.20089 38395 ft 447 kts 275°
2026-05-04 23:13 -32.63588 121.11750 38399 ft 448 kts 275°
2026-05-04 23:14 -32.62655 121.03185 38384 ft 448 kts 276°
2026-05-04 23:14 -32.61715 120.94617 38383 ft 448 kts 275°
2026-05-04 23:15 -32.60768 120.86041 38382 ft 447 kts 275°
2026-05-04 23:15 -32.59819 120.77493 38383 ft 447 kts 275°
2026-05-04 23:16 -32.58852 120.68847 38380 ft 447 kts 275°
2026-05-04 23:16 -32.57892 120.60309 38383 ft 447 kts 275°
2026-05-04 23:17 -32.56953 120.52018 38376 ft 447 kts 275°
2026-05-04 23:17 -32.56126 120.44746 38367 ft 446 kts 275°
2026-05-04 23:18 -32.55196 120.36622 38365 ft 446 kts 275°
2026-05-04 23:18 -32.54206 120.28027 38384 ft 446 kts 276°
2026-05-04 23:19 -32.53225 120.19556 38388 ft 445 kts 276°
2026-05-04 23:19 -32.52209 120.10844 38392 ft 446 kts 276°
2026-05-04 23:20 -32.51207 120.02295 38391 ft 446 kts 276°
2026-05-04 23:20 -32.50205 119.93803 38385 ft 445 kts 276°
2026-05-04 23:21 -32.49295 119.86134 38387 ft 446 kts 276°
2026-05-04 23:21 -32.48433 119.78901 38380 ft 445 kts 276°
2026-05-04 23:22 -32.47997 119.75259 38266 ft 447 kts 276°
2026-05-04 23:22 -32.47548 119.71513 38000 ft 449 kts 276°
2026-05-04 23:22 -32.47113 119.67905 37703 ft 448 kts 276°
2026-05-04 23:22 -32.46672 119.64246 37403 ft 448 kts 276°
2026-05-04 23:23 -32.46234 119.60625 37107 ft 449 kts 276°
2026-05-04 23:23 -32.45793 119.56982 36806 ft 449 kts 276°
2026-05-04 23:23 -32.45345 119.53296 36499 ft 450 kts 276°
2026-05-04 23:23 -32.44900 119.49642 36197 ft 451 kts 276°
2026-05-04 23:24 -32.44453 119.45982 35895 ft 452 kts 276°
2026-05-04 23:24 -32.44001 119.42298 35590 ft 454 kts 276°
2026-05-04 23:24 -32.43554 119.38654 35287 ft 454 kts 276°
2026-05-04 23:24 -32.43099 119.34956 34987 ft 456 kts 277°
2026-05-04 23:25 -32.42642 119.31253 34693 ft 457 kts 277°
2026-05-04 23:25 -32.42448 119.29685 34572 ft 457 kts 277°
2026-05-04 23:28 -32.42442 119.29636 34569 ft 458 kts 277°
2026-05-04 23:29 -32.41986 119.25948 34275 ft 460 kts 277°
2026-05-04 23:29 -32.41520 119.22195 33919 ft 462 kts 277°
2026-05-04 23:29 -32.41053 119.18443 33541 ft 463 kts 277°
2026-05-04 23:29 -32.40585 119.14688 33170 ft 464 kts 277°
2026-05-04 23:30 -32.40115 119.10929 32795 ft 464 kts 277°
2026-05-04 23:30 -32.39611 119.06908 32395 ft 465 kts 277°
2026-05-04 23:30 -32.39096 119.02811 31984 ft 466 kts 277°
2026-05-04 23:30 -32.38620 118.99032 31610 ft 467 kts 277°
2026-05-04 23:31 -32.38142 118.95248 31238 ft 465 kts 277°
2026-05-04 23:31 -32.37670 118.91518 30870 ft 461 kts 277°
2026-05-04 23:31 -32.37188 118.87723 30493 ft 457 kts 277°
2026-05-04 23:31 -32.36704 118.83918 30113 ft 455 kts 277°
2026-05-04 23:32 -32.36234 118.80238 29713 ft 453 kts 277°
2026-05-04 23:32 -32.35762 118.76548 29314 ft 451 kts 277°
2026-05-04 23:32 -32.35296 118.72908 28921 ft 448 kts 277°
2026-05-04 23:32 -32.34829 118.69276 28527 ft 446 kts 277°
2026-05-04 23:33 -32.34370 118.65713 28135 ft 444 kts 277°
2026-05-04 23:33 -32.33915 118.62084 27736 ft 443 kts 275°
2026-05-04 23:33 -32.33762 118.58486 27340 ft 439 kts 268°
2026-05-04 23:33 -32.33862 118.54887 26947 ft 436 kts 266°
2026-05-04 23:34 -32.33979 118.51360 26560 ft 434 kts 266°
2026-05-04 23:34 -32.34096 118.47803 26168 ft 432 kts 266°
2026-05-04 23:34 -32.34210 118.44251 25773 ft 430 kts 266°
2026-05-04 23:34 -32.34320 118.40743 25384 ft 427 kts 266°
2026-05-04 23:35 -32.34428 118.37244 24991 ft 426 kts 266°
2026-05-04 23:35 -32.34534 118.33753 24606 ft 423 kts 266°
2026-05-04 23:35 -32.34638 118.30310 24230 ft 422 kts 266°
2026-05-04 23:35 -32.34739 118.26874 23857 ft 420 kts 266°
2026-05-04 23:36 -32.34841 118.23415 23478 ft 418 kts 266°
2026-05-04 23:36 -32.34940 118.20013 23106 ft 416 kts 266°
2026-05-04 23:36 -32.35037 118.16612 22730 ft 415 kts 266°
2026-05-04 23:36 -32.35133 118.13244 22361 ft 414 kts 266°
2026-05-04 23:37 -32.35228 118.09864 22023 ft 412 kts 266°
2026-05-04 23:37 -32.35322 118.06497 21700 ft 411 kts 266°
2026-05-04 23:37 -32.35414 118.03139 21377 ft 409 kts 266°
2026-05-04 23:37 -32.35506 117.99779 21056 ft 408 kts 266°
2026-05-04 23:38 -32.35596 117.96439 20734 ft 407 kts 266°
2026-05-04 23:38 -32.35685 117.93121 20415 ft 405 kts 266°
2026-05-04 23:38 -32.35773 117.89772 20088 ft 404 kts 266°
2026-05-04 23:38 -32.35860 117.86492 19770 ft 403 kts 266°
2026-05-04 23:39 -32.35945 117.83179 19448 ft 402 kts 266°
2026-05-04 23:39 -32.36030 117.79891 19129 ft 401 kts 266°
2026-05-04 23:39 -32.36113 117.76610 18809 ft 400 kts 266°
2026-05-04 23:39 -32.36196 117.73342 18492 ft 399 kts 266°
2026-05-04 23:40 -32.36277 117.70091 18171 ft 398 kts 266°
2026-05-04 23:40 -32.36249 117.66813 17856 ft 398 kts 272°
2026-05-04 23:40 -32.35838 117.63596 17546 ft 398 kts 281°
2026-05-04 23:40 -32.35128 117.60440 17236 ft 398 kts 283°
2026-05-04 23:41 -32.34389 117.57327 16926 ft 397 kts 284°
2026-05-04 23:41 -32.33642 117.54196 16613 ft 395 kts 284°
2026-05-04 23:41 -32.32896 117.51075 16299 ft 394 kts 284°
2026-05-04 23:41 -32.32155 117.47987 15986 ft 393 kts 284°
2026-05-04 23:42 -32.31414 117.44904 15675 ft 391 kts 284°
2026-05-04 23:42 -32.30667 117.41799 15362 ft 390 kts 284°
2026-05-04 23:42 -32.29934 117.38761 15053 ft 388 kts 284°
2026-05-04 23:42 -32.29194 117.35694 14739 ft 387 kts 284°
2026-05-04 23:43 -32.28458 117.32652 14427 ft 386 kts 284°
2026-05-04 23:43 -32.27724 117.29620 14115 ft 385 kts 284°
2026-05-04 23:43 -32.26990 117.26592 13804 ft 385 kts 284°
2026-05-04 23:43 -32.26252 117.23550 13486 ft 383 kts 284°
2026-05-04 23:44 -32.25519 117.20534 13170 ft 381 kts 284°
2026-05-04 23:44 -32.24794 117.17554 12857 ft 379 kts 284°
2026-05-04 23:44 -32.24070 117.14583 12542 ft 376 kts 284°
2026-05-04 23:44 -32.23349 117.11623 12226 ft 375 kts 285°
2026-05-04 23:45 -32.22634 117.08695 11912 ft 373 kts 285°
2026-05-04 23:45 -32.21920 117.05771 11597 ft 371 kts 285°
2026-05-04 23:45 -32.21207 117.02858 11280 ft 369 kts 285°
2026-05-04 23:45 -32.20495 116.99949 11070 ft 366 kts 285°
2026-05-04 23:46 -32.19787 116.97064 11055 ft 367 kts 285°
2026-05-04 23:46 -32.19076 116.94170 11050 ft 367 kts 285°
2026-05-04 23:46 -32.18368 116.91288 11033 ft 368 kts 285°
2026-05-04 23:46 -32.17829 116.88347 10825 ft 366 kts 278°
2026-05-04 23:47 -32.17444 116.85385 10575 ft 364 kts 277°
2026-05-04 23:47 -32.17070 116.82439 10335 ft 362 kts 277°
2026-05-04 23:47 -32.16698 116.79526 10092 ft 361 kts 277°
2026-05-04 23:47 -32.16322 116.76605 9843 ft 360 kts 278°
2026-05-04 23:48 -32.15949 116.73714 9599 ft 358 kts 278°
2026-05-04 23:48 -32.15575 116.70827 9360 ft 357 kts 278°
2026-05-04 23:48 -32.15194 116.67897 9113 ft 356 kts 278°
2026-05-04 23:48 -32.14820 116.65032 8866 ft 355 kts 278°
2026-05-04 23:49 -32.14611 116.62124 8609 ft 353 kts 267°
2026-05-04 23:49 -32.14835 116.59261 8365 ft 351 kts 262°
2026-05-04 23:49 -32.15142 116.56428 8113 ft 342 kts 262°
2026-05-04 23:49 -32.15444 116.53707 7866 ft 331 kts 262°
2026-05-04 23:50 -32.15736 116.51055 7625 ft 321 kts 262°
2026-05-04 23:50 -32.16014 116.48511 7383 ft 312 kts 262°
2026-05-04 23:50 -32.16285 116.46009 7143 ft 304 kts 262°
2026-05-04 23:50 -32.16560 116.43466 6892 ft 297 kts 262°
2026-05-04 23:51 -32.16861 116.40684 6607 ft 289 kts 263°
2026-05-04 23:51 -32.17158 116.37920 6313 ft 283 kts 263°
2026-05-04 23:51 -32.17446 116.35234 6027 ft 277 kts 263°
2026-05-04 23:51 -32.17710 116.32778 5755 ft 272 kts 264°
2026-05-04 23:52 -32.17944 116.30594 5540 ft 266 kts 264°
2026-05-04 23:52 -32.18169 116.28478 5365 ft 260 kts 264°
2026-05-04 23:52 -32.18392 116.26392 5189 ft 253 kts 264°
2026-05-04 23:52 -32.18610 116.24342 5040 ft 247 kts 264°
2026-05-04 23:53 -32.18818 116.22386 5004 ft 234 kts 264°
2026-05-04 23:53 -32.19015 116.20526 5011 ft 229 kts 264°
2026-05-04 23:53 -32.19215 116.18628 5010 ft 228 kts 264°
2026-05-04 23:53 -32.19412 116.16769 5007 ft 228 kts 264°
2026-05-04 23:54 -32.19608 116.14911 4995 ft 228 kts 265°
2026-05-04 23:54 -32.19686 116.13058 4997 ft 227 kts 270°
2026-05-04 23:54 -32.19712 116.11201 5010 ft 227 kts 270°
2026-05-04 23:54 -32.19738 116.09323 5018 ft 226 kts 270°
2026-05-04 23:55 -32.19765 116.07466 5014 ft 226 kts 270°
2026-05-04 23:55 -32.19792 116.05608 5019 ft 226 kts 270°
2026-05-04 23:55 -32.19629 116.01935 4987 ft 225 kts 284°
2026-05-04 23:56 -32.19250 116.00134 4807 ft 227 kts 285°
2026-05-04 23:56 -32.18856 115.98334 4576 ft 225 kts 286°
2026-05-04 23:56 -32.18469 115.96565 4329 ft 222 kts 285°
2026-05-04 23:56 -32.18086 115.94810 4081 ft 220 kts 285°
2026-05-04 23:57 -32.17684 115.93122 4006 ft 206 kts 294°
2026-05-04 23:57 -32.16909 115.91807 3988 ft 190 kts 319°
2026-05-04 23:57 -32.15810 115.90987 3986 ft 184 kts 339°
2026-05-04 23:57 -32.14574 115.90688 3774 ft 182 kts
2026-05-04 23:58 -32.13341 115.90891 3518 ft 178 kts 12°
2026-05-04 23:58 -32.12097 115.91251 3252 ft 174 kts 14°
2026-05-04 23:58 -32.10938 115.91596 3033 ft 168 kts 15°
2026-05-04 23:58 -32.09838 115.91918 2883 ft 156 kts 15°
2026-05-04 23:59 -32.08833 115.92210 2700 ft 140 kts 15°
2026-05-04 23:59 -32.07906 115.92481 2528 ft 138 kts 16°
2026-05-04 23:59 -32.06969 115.92754 2347 ft 139 kts 16°
2026-05-04 23:59 -32.06033 115.93025 2162 ft 134 kts 17°
2026-05-05 00:00 -32.05136 115.93285 1985 ft 132 kts 17°
2026-05-05 00:00 -32.04844 115.93371 1926 ft 132 kts 17°
2026-05-05 00:00 -32.03361 115.93787 1642 ft 132 kts 17°
2026-05-05 00:00 -32.02465 115.94041 1495 ft 133 kts 18°
2026-05-05 00:01 -32.01553 115.94294 1321 ft 135 kts 17°
2026-05-05 00:01 -32.00637 115.94563 1121 ft 136 kts 18°
2026-05-05 00:01 -31.99712 115.94849 923 ft 137 kts 18°
2026-05-05 00:01 -31.98787 115.95124 698 ft 137 kts 16°
2026-05-05 00:02 -31.97868 115.95386 485 ft 134 kts 17°
2026-05-05 00:02 -31.96973 115.95645 316 ft 133 kts 16°
2026-05-05 00:02 -31.96060 115.95912 171 ft 133 kts 17°
2026-05-05 00:02 -31.95197 115.96166 79 ft 115 kts 15°
2026-05-05 00:03 -31.94537 115.96359 75 ft 80 kts 14°
2026-05-05 00:03 -31.94097 115.96487 72 ft 54 kts 14°
2026-05-05 00:03 -31.93757 115.96587 68 ft 39 kts 14°
2026-05-05 00:03 -31.93574 115.96639 65 ft 18 kts 13°
2026-05-05 00:04 -31.93484 115.96708 65 ft 17 kts 54°
2026-05-05 00:04 -31.93420 115.96828 63 ft 16 kts 59°
2026-05-05 00:04 -31.93366 115.96934 62 ft 11 kts 59°
2026-05-05 00:04 -31.93367 115.97013 62 ft 12 kts 132°
2026-05-05 00:05 -31.93447 115.97076 64 ft 14 kts 148°
2026-05-05 00:05 -31.93541 115.97143 66 ft 16 kts 149°
2026-05-05 00:05 -31.93643 115.97214 69 ft 18 kts 149°
2026-05-05 00:05 -31.93757 115.97295 73 ft 15 kts 148°
2026-05-05 00:06 -31.93836 115.97347 75 ft 11 kts 163°
2026-05-05 00:06 -31.93904 115.97349 77 ft 8 kts 182°
2026-05-05 00:06 -31.93963 115.97360 78 ft 4 kts 163°
2026-05-05 00:06 -31.93996 115.97372 79 ft 3 kts 162°
2026-05-05 00:07 -31.94006 115.97375 79 ft 0 kts 162°